Location: Newark
(13.6797°N, 8.5297°E)
Time: 02:29:03
(UTC+00:00)

ISS - Visible Passes

Search period start: 15 December 2019 00:00
Search period end: 25 December 2019 00:00
Orbit: 411 x 421 km, 51.6° (Epoch: 15 December)

Date Brightness Start Highest point End Pass type
(mag) Time Alt. Az. Time Alt. Az. Time Alt. Az.
16 Dec -0.5 17:32:09 10° W 17:34:27 17° SW 17:36:45 10° SSW visible
17 Dec -0.5 05:14:03 10° SSE 05:16:19 17° SE 05:18:35 10° E visible
19 Dec -3.8 05:12:33 10° SW 05:15:52 90° ESE 05:19:09 10° NE visible
20 Dec -2.0 04:24:22 10° SSW 04:27:24 34° SE 04:30:27 10° ENE visible
21 Dec -0.8 03:38:37 15° SE 03:38:57 15° SE 03:41:00 10° E visible
21 Dec -2.3 05:13:06 10° W 05:15:29 18° NW 05:17:52 10° N visible
22 Dec -2.4 04:28:22 25° N 04:28:22 25° N 04:30:04 10° NNE visible
